M0JUI-1 Weather Reports


time (UTC)temp
C
wind
direction
speed
KPH
gust
KPH
rain 1hr
cm
rain 24hr
cm
rain mn
cm
humidity
%
barometer
mb
20260506002839 7 152 0.0 0.0 0.00 0.00 0.00 3 1015.8
20260506002339 7 156 0.0 0.0 0.00 0.00 0.00 3 1015.8
20260506001827 7 91 0.0 0.0 0.00 0.00 0.00 3 1015.7
20260506001327 7 76 0.0 0.0 0.00 0.00 0.00 3 1015.6
20260506000827 7 151 0.0 0.0 0.00 0.00 0.00 3 1015.6
20260506000315 7 112 0.0 0.0 0.00 0.00 0.00 3 1015.6
20260505235815 7 80 0.0 0.0 0.00 0.00 0.00 3 1015.7
20260505235315 7 125 0.0 0.0 0.00 0.00 0.00 3 1015.7
20260505234803 7 176 0.0 0.0 0.00 0.00 0.00 3 1015.7
20260505234303 7 108 0.0 0.0 0.00 0.00 0.00 3 1015.7
20260505233803 7 129 0.0 0.0 0.00 0.00 0.00 3 1015.6
20260505233251 7 66 0.0 0.0 0.00 0.00 0.00 3 1015.6
20260505232751 7 89 0.0 0.0 0.00 0.00 0.00 3 1015.7
20260505232251 7 134 0.0 0.0 0.00 0.00 0.00 3 1015.7
20260505231739 7 78 0.0 0.0 0.00 0.00 0.00 3 1015.7
20260505231239 7 101 0.0 0.0 0.00 0.00 0.00 3 1015.7
20260505230739 7 56 0.0 0.0 0.00 0.00 0.00 3 1015.6
20260505230239 7 104 0.0 0.0 0.00 0.00 0.00 3 1015.5
20260505225739 7 94 0.0 0.0 0.00 0.00 0.00 3 1015.8
20260505225239 7 84 0.0 0.0 0.00 0.00 0.00 3 1015.7
20260505224739 7 112 0.0 0.0 0.00 0.00 0.00 3 1015.7
20260505224239 7 85 0.0 0.0 0.00 0.00 0.00 3 1015.8
20260505223739 7 132 0.0 0.0 0.00 0.00 0.00 2 1015.7
20260505223240 7 127 0.0 0.0 0.00 0.00 0.00 2 1015.8
20260505222739 7 123 0.0 0.0 0.00 0.00 0.00 2 1015.7
20260505222240 7 110 0.0 0.0 0.00 0.00 0.00 2 1015.6
20260505221739 7 85 0.0 0.0 0.00 0.00 0.00 2 1015.6
20260505221239 7 133 0.0 0.0 0.00 0.00 0.00 1 1015.6
20260505220739 7 41 0.0 0.0 0.00 0.00 0.00 1 1015.6
20260505220239 8 97 0.0 0.0 0.00 0.00 0.00 1 1015.4
20260505215739 8 99 0.0 0.0 0.00 0.00 0.00 1 1015.6
20260505215239 8 135 0.0 0.0 0.00 0.00 0.00 1 1015.5
20260505214739 8 118 0.0 0.0 0.00 0.00 0.00 1 1015.5
20260505214239 8 88 0.0 0.0 0.00 0.00 0.00 1 1015.6
20260505213739 8 127 0.0 0.0 0.00 0.00 0.00 1 1015.4
20260505213238 8 125 0.0 0.0 0.00 0.00 0.00 1 1015.6
20260505212739 8 38 0.0 0.0 0.00 0.00 0.00 1 1015.4
20260505212228 8 89 0.0 0.0 0.00 0.00 0.00 1 1015.5
20260505211726 8 63 0.0 0.0 0.00 0.00 0.00 1 1015.5
20260505211227 8 76 0.0 0.0 0.00 0.00 0.00 1 1015.6
20260505210727 8 105 0.0 0.0 0.00 0.00 0.00 1 1015.7
20260505210227 8 83 0.0 0.0 0.00 0.00 0.00 1 1015.6
20260505205727 8 65 0.0 0.0 0.00 0.00 0.00 1 1015.5
20260505205227 8 105 0.0 0.0 0.00 0.00 0.00 1 1015.5
20260505204715 8 82 0.0 0.0 0.00 0.00 0.00 1 1015.4
20260505204215 9 98 0.0 0.0 0.00 0.00 0.00 1 1015.3
20260505203715 9 108 0.0 0.0 0.00 0.00 0.00 1 1015.4
20260505203203 9 45 0.0 0.0 0.00 0.00 0.00 1 1015.3
20260505202703 9 72 0.0 0.0 0.00 0.00 0.00 1 1015.2
20260505202139 9 130 0.0 0.0 0.00 0.00 0.00 1 1015.1
20260505201639 10 150 0.0 0.0 0.00 0.00 0.00 1 1015.0
20260505201139 10 90 0.0 0.0 0.00 0.00 0.00 1 1015.1
20260505200639 10 69 0.0 0.0 0.00 0.00 0.00 1 1015.2
20260505200139 10 105 0.0 0.0 0.00 0.00 0.00 1 1015.1
20260505195639 10 109 0.0 0.0 0.00 0.00 0.00 1 1015.0
20260505195139 10 89 0.0 0.0 0.00 0.00 0.00 1 1015.0
20260505194639 10 49 0.0 0.0 0.00 0.00 0.00 1 1015.1
20260505194139 10 288 0.0 0.0 0.00 0.00 0.00 1 1015.0
20260505193639 10 349 0.0 0.0 0.00 0.00 0.00 1 1014.9
20260505193139 10 98 0.0 0.0 0.00 0.00 0.00 1 1014.8
20260505192639 10 262 0.0 0.0 0.00 0.00 0.00 1 1015.0
20260505192139 10 262 0.0 0.0 0.00 0.00 0.00 1 1014.7
20260505191639 10 83 0.0 0.0 0.00 0.00 0.00 1 1014.7
20260505191139 10 59 0.0 0.0 0.00 0.00 0.00 1 1014.6
20260505190639 10 67 0.0 0.0 0.00 0.00 0.00 1 1014.5
20260505190140 10 263 0.0 0.0 0.00 0.00 0.00 1 1014.4
20260505185639 10 36 0.0 0.0 0.00 0.00 0.00 1 1014.5
20260505185140 10 247 0.0 0.0 0.00 0.00 0.00 1 1014.5
20260505184627 10 308 0.0 0.0 0.00 0.00 0.00 1 1014.6
20260505184127 10 142 0.0 0.0 0.00 0.00 0.00 1 1014.5
20260505183627 11 239 0.0 0.0 0.00 0.00 0.00 1 1014.6
20260505183127 11 350 0.0 0.0 0.00 0.00 0.00 1 1014.2
20260505182627 11 338 0.0 0.0 0.00 0.00 0.00 1 1014.4
20260505182127 11 133 0.0 0.0 0.00 0.00 0.00 1 1014.4
20260505181627 11 299 0.0 0.0 0.00 0.00 0.00 1 1014.5
20260505181127 11 309 0.0 0.0 0.00 0.00 0.00 1 1014.5
20260505180626 11 58 0.0 0.0 0.00 0.00 0.00 1 1014.6
20260505180116 11 110 0.0 0.0 0.00 0.00 0.00 1 1014.5
20260505175603 11 247 0.0 0.0 0.00 0.00 0.00 99 1014.3
20260505175107 11 76 0.0 0.0 0.00 0.00 0.00 99 1014.4
20260505174604 11 7 0.0 0.0 0.00 0.00 0.00 99 1014.3
20260505174052 11 250 0.0 0.0 0.00 0.00 0.00 99 1014.4
20260505173551 11 325 0.0 0.0 0.00 0.00 0.00 99 1014.3
20260505173051 11 284 0.0 0.0 0.00 0.00 0.00 99 1014.5
20260505172540 11 32 0.0 0.0 0.00 0.00 0.00 99 1014.5
20260505172039 11 63 0.0 0.0 0.00 0.00 0.00 99 1014.4
20260505171539 11 272 0.0 0.0 0.00 0.00 0.00 99 1014.4
20260505171028 11 300 0.0 0.0 0.00 0.00 0.00 99 1014.5
20260505170527 11 248 0.0 0.0 0.00 0.00 0.00 1 1014.4
20260505170028 11 288 0.0 0.0 0.00 0.00 0.00 1 1014.6
20260505165527 11 216 0.0 0.0 0.00 0.00 0.00 1 1014.6
20260505165027 11 300 0.0 0.0 0.00 0.00 0.00 1 1014.6
20260505164527 11 246 0.0 0.0 0.00 0.00 0.00 1 1014.5
20260505164027 11 315 0.0 0.0 0.00 0.00 0.00 1 1014.6
20260505163527 11 279 0.0 0.0 0.00 0.00 0.00 1 1014.7
20260505163027 10 251 0.0 0.0 0.00 0.00 0.00 99 1014.5
20260505162527 11 303 0.0 0.0 0.00 0.00 0.00 99 1014.6
20260505162027 11 275 0.0 0.0 0.00 0.00 0.00 99 1014.7
20260505161527 11 256 0.0 0.0 0.00 0.00 0.00 99 1014.8
20260505161027 11 299 0.0 0.0 0.00 0.00 0.00 99 1014.6
20260505160527 11 298 0.0 0.0 0.00 0.00 0.00 99 1014.8
20260505153029 11 8 0.0 0.0 0.00 0.00 0.00 99 1014.8
20260505152527 11 277 0.0 0.0 0.00 0.00 0.00 99 1014.8
20260505152027 11 290 0.0 0.0 0.00 0.00 0.00 99 1014.7
20260505151527 11 296 0.0 0.0 0.00 0.00 0.00 99 1014.7
20260505151029 11 320 0.0 0.0 0.00 0.00 0.00 99 1014.5
20260505150527 11 106 0.0 0.0 0.00 0.00 0.00 99 1014.8
20260505140527 11 28 0.0 0.0 0.00 0.00 0.00 99 1015.0
20260505125027 11 264 0.0 0.0 0.00 0.00 0.00 99 1014.9
20260505124527 11 34 0.0 0.0 0.00 0.00 0.00 99 1014.7
20260505124027 11 335 0.0 0.0 0.00 0.00 0.00 99 1014.8
20260505123515 11 324 0.0 0.0 0.00 0.00 0.00 99 1015.0
20260505123016 11 283 0.0 0.0 0.00 0.00 0.00 99 1014.9
20260505122515 11 17 0.0 0.0 0.00 0.00 0.00 99 1014.8
20260505122009 11 0 0.0 0.0 0.00 0.00 0.00 99 1014.8
20260505121503 11 262 0.0 0.0 0.00 0.00 0.00 99 1014.9
20260505121005 11 5 0.0 0.0 0.00 0.00 0.00 99 1014.9
20260505120451 11 231 0.0 0.0 0.00 0.00 0.00 99 1014.8
20260505115951 11 207 0.0 0.0 0.00 0.00 0.00 99 1014.9
20260505115451 11 345 0.0 0.0 0.00 0.00 0.00 99 1014.8
20260505114939 12 53 0.0 0.0 0.00 0.00 0.00 99 1014.8
20260505114439 12 306 0.0 0.0 0.00 0.00 0.00 99 1014.9
20260505113939 12 218 0.0 0.0 0.00 0.00 0.00 99 1015.0
20260505113439 12 53 0.0 0.0 0.00 0.00 0.00 99 1015.0
20260505112939 12 300 0.0 0.0 0.00 0.00 0.00 99 1014.8
20260505112440 12 259 0.0 0.0 0.00 0.00 0.00 99 1014.9
20260505111940 12 330 0.0 0.0 0.00 0.00 0.00 99 1015.1
20260505111427 12 276 0.0 0.0 0.00 0.00 0.00 99 1015.0
20260505110927 12 197 0.0 0.0 0.00 0.00 0.00 99 1015.2
20260505110427 12 316 0.0 0.0 0.00 0.00 0.00 99 1015.1
20260505101927 11 269 0.0 0.0 0.00 0.00 0.00 99 1015.2
20260505101427 11 2 0.0 0.0 0.00 0.00 0.00 99 1015.3
20260505100927 12 185 0.0 0.0 0.00 0.00 0.00 99 1015.2
20260505100427 11 304 0.0 0.0 0.00 0.00 0.00 99 1015.3
20260505095927 11 67 0.0 0.0 0.00 0.00 0.00 99 1015.2
20260505095429 12 268 0.0 0.0 0.00 0.00 0.00 99 1015.3
20260505094927 11 235 0.0 0.0 0.00 0.00 0.00 99 1015.1
20260505094427 11 286 0.0 0.0 0.00 0.00 0.00 99 1015.3
20260505093927 12 19 0.0 0.0 0.00 0.00 0.00 99 1015.3
20260505093427 11 17 0.0 0.0 0.00 0.00 0.00 99 1015.2
20260505092927 11 332 0.0 0.0 0.00 0.00 0.00 99 1015.3
20260505092427 10 0 0.0 0.0 0.00 0.00 0.00 99 1015.1
20260505091927 11 71 0.0 0.0 0.00 0.00 0.00 99 1015.1
20260505091427 11 321 0.0 0.0 0.00 0.00 0.00 99 1015.0
20260505090927 11 84 0.0 0.0 0.00 0.00 0.00 99 1015.0
20260505090428 11 93 0.0 0.0 0.00 0.00 0.00 99 1015.2
20260505085927 11 92 0.0 0.0 0.00 0.00 0.00 99 1015.1
20260505085427 12 61 0.0 0.0 0.00 0.00 0.00 99 1015.2
20260505084927 11 333 0.0 0.0 0.00 0.00 0.00 99 1015.4
20260505084427 11 93 0.0 0.0 0.00 0.00 0.00 99 1015.2
20260505083927 11 297 0.0 0.0 0.00 0.00 0.00 99 1015.3
20260505083427 11 159 0.0 0.0 0.00 0.00 0.00 99 1015.4
20260505082927 11 357 0.0 0.0 0.00 0.00 0.00 1 1015.2
20260505082427 11 179 0.0 0.0 0.00 0.00 0.00 1 1015.4
20260505081927 11 109 0.0 0.0 0.00 0.00 0.00 1 1015.3
20260505081427 11 266 0.0 0.0 0.00 0.00 0.00 1 1015.5
20260505080927 10 72 0.0 0.0 0.00 0.00 0.00 1 1015.4
20260505080427 10 52 0.0 0.0 0.00 0.00 0.00 1 1015.1
20260505075927 10 63 0.0 0.0 0.00 0.00 0.00 1 1015.5
20260505075427 10 208 0.0 0.0 0.00 0.00 0.00 1 1015.4
20260505074927 10 243 0.0 0.0 0.00 0.00 0.00 1 1015.4
20260505074426 10 7 0.0 0.0 0.00 0.00 0.00 1 1015.5
20260505073927 10 78 0.0 0.0 0.00 0.00 0.00 1 1015.3
20260505073427 10 350 0.0 0.0 0.00 0.00 0.00 1 1015.4
20260505072928 10 111 0.0 0.0 0.00 0.00 0.00 1 1015.3
20260505072426 9 104 0.0 0.0 0.00 0.00 0.00 1 1015.4
20260505071928 9 256 0.0 0.0 0.00 0.00 0.00 1 1015.2
20260505071427 8 210 0.0 0.0 0.00 0.00 0.00 99 1015.4
20260505070927 8 289 0.0 0.0 0.00 0.00 0.00 99 1015.4
20260505070427 8 231 0.0 0.0 0.00 0.00 0.00 99 1015.4
20260505065927 8 284 0.0 0.0 0.00 0.00 0.00 99 1015.5
20260505065427 8 272 0.0 0.0 0.00 0.00 0.00 99 1015.3
20260505064927 8 325 0.0 0.0 0.00 0.00 0.00 99 1015.5
20260505064427 8 248 0.0 0.0 0.00 0.00 0.00 99 1015.6
20260505063927 8 322 0.0 0.0 0.00 0.00 0.00 99 1015.6
20260505063426 8 323 0.0 0.0 0.00 0.00 0.00 99 1015.6
20260505062927 8 279 0.0 0.0 0.00 0.00 0.00 99 1015.5
20260505062427 7 353 0.0 0.0 0.00 0.00 0.00 99 1015.5
20260505061927 7 319 0.0 0.0 0.00 0.00 0.00 99 1015.3
20260505061427 7 301 0.0 0.0 0.00 0.00 0.00 99 1015.3
20260505060927 7 359 0.0 0.0 0.00 0.00 0.00 99 1015.6
20260505060427 7 337 0.0 0.0 0.00 0.00 0.00 99 1015.3
20260505055927 7 321 0.0 0.0 0.00 0.00 0.00 99 1015.3
20260505055427 6 19 0.0 0.0 0.00 0.00 0.00 99 1015.3
20260505054927 6 34 0.0 0.0 0.00 0.00 0.00 1 1015.5
20260505054427 6 293 0.0 0.0 0.00 0.00 0.00 1 1015.4
20260505053927 6 284 0.0 0.0 0.00 0.00 0.00 1 1015.4
20260505053427 6 306 0.0 0.0 0.00 0.00 0.00 1 1015.5
20260505052927 6 316 0.0 0.0 0.00 0.00 0.00 1 1015.4
20260505052427 6 277 0.0 0.0 0.00 0.00 0.00 1 1015.6
20260505051927 6 336 0.0 0.0 0.00 0.00 0.00 1 1015.6
20260505051427 5 308 0.0 0.0 0.00 0.00 0.00 1 1015.6
20260505050927 5 304 0.0 0.0 0.00 0.00 0.00 1 1015.5
20260505050427 5 285 0.0 0.0 0.00 0.00 0.00 1 1015.5
20260505041428 5 301 0.0 0.0 0.00 0.00 0.00 1 1015.2
20260505040928 5 335 0.0 0.0 0.00 0.00 0.00 1 1015.2
20260505040427 5 328 0.0 0.0 0.00 0.00 0.00 1 1015.2
20260505035915 5 316 0.0 0.0 0.00 0.00 0.00 1 1015.1
20260505035415 5 282 0.0 0.0 0.00 0.00 0.00 1 1015.1
20260505034915 5 317 0.0 0.0 0.00 0.00 0.00 1 1015.2
20260505034404 5 280 0.0 0.0 0.00 0.00 0.00 1 1015.1
20260505033903 5 285 0.0 0.0 0.00 0.00 0.00 1 1015.2
20260505033403 5 288 0.0 0.0 0.00 0.00 0.00 1 1015.2
20260505032851 5 302 0.0 0.0 0.00 0.00 0.00 1 1015.1
20260505032351 5 284 0.0 0.0 0.00 0.00 0.00 1 1015.3
20260505031851 5 296 0.0 0.0 0.00 0.00 0.00 1 1015.2
20260505031339 5 300 0.0 0.0 0.00 0.00 0.00 1 1015.2
20260505030839 6 320 0.0 0.0 0.00 0.00 0.00 1 1015.2
20260505030344 6 276 0.0 0.0 0.00 0.00 0.00 1 1015.2
20260505025839 6 291 0.0 0.0 0.00 0.00 0.00 1 1015.2
20260505025339 6 318 0.0 0.0 0.00 0.00 0.00 1 1015.0
20260505024839 6 279 0.0 0.0 0.00 0.00 0.00 2 1015.3
20260505024339 6 315 0.0 0.0 0.00 0.00 0.00 2 1015.2
20260505023827 6 267 0.0 0.0 0.00 0.00 0.00 2 1015.3
20260505023327 6 291 0.0 0.0 0.00 0.00 0.00 3 1015.3
20260505022828 6 324 0.0 0.0 0.00 0.00 0.00 3 1015.3
20260505022315 5 298 0.0 0.0 0.00 0.00 0.00 4 1015.3
20260505021815 5 334 0.0 0.0 0.00 0.00 0.00 4 1015.4
20260505021315 5 338 0.0 0.0 0.00 0.00 0.00 5 1015.3
20260505020803 5 292 0.0 0.0 0.00 0.00 0.00 5 1015.5
20260505020303 5 291 0.0 0.0 0.00 0.00 0.00 5 1015.6
20260505015803 5 300 0.0 0.0 0.00 0.00 0.00 5 1015.4
20260505015251 6 281 0.0 0.0 0.00 0.00 0.00 5 1015.5
20260505014751 6 277 0.0 0.0 0.00 0.00 0.00 5 1015.7
20260505014251 6 276 0.0 0.0 0.00 0.00 0.00 6 1015.7
20260505013739 6 266 0.0 0.0 0.00 0.00 0.00 6 1015.6
20260505013239 6 273 0.0 0.0 0.00 0.00 0.00 6 1015.8
20260505012739 6 277 0.0 0.0 0.00 0.00 0.00 7 1015.7
20260505012239 6 287 0.0 0.0 0.00 0.00 0.00 8 1015.8
20260505011739 6 274 0.0 0.0 0.00 0.00 0.00 8 1015.9
20260505011239 6 286 0.0 0.0 0.00 0.00 0.00 9 1015.7
20260505010739 6 277 0.0 0.0 0.00 0.00 0.00 10 1015.8
20260505010240 6 252 0.0 0.0 0.00 0.00 0.00 10 1015.9
20260505005739 6 307 0.0 0.0 0.00 0.00 0.00 11 1016.1
20260505005239 6 307 0.0 0.0 0.00 0.00 0.00 12 1016.0
20260505004740 6 209 0.0 0.0 0.00 0.00 0.00 12 1015.8
20260505004240 6 319 0.0 0.0 0.00 0.00 0.00 12 1015.9
20260505003739 6 275 0.0 0.0 0.00 0.00 0.00 13 1015.7
20260505003240 6 263 0.0 0.0 0.00 0.00 0.00 14 1016.0